TimePDT,TemperatureF,Dew PointF,Humidity,Sea Level PressureIn,VisibilityMPH,Wind Direction,Wind SpeedMPH,Gust SpeedMPH,PrecipitationIn,Events,Conditions,WindDirDegrees,DateUTC
12:53 AM,48.9,48.0,97,29.75,10.0,SSW,3.5,-,0.05,Rain,Light Rain,200,2013-04-06 07:53:00
1:53 AM,50.0,48.0,93,29.74,10.0,SE,3.5,-,0.01,Rain,Light Rain,130,2013-04-06 08:53:00
2:53 AM,50.0,46.9,89,29.77,8.0,SSE,9.2,19.6,0.07,Rain,Light Rain,150,2013-04-06 09:53:00
3:45 AM,50.0,46.4,87,29.77,10.0,SSE,8.1,-,0.00,,Mostly Cloudy,160,2013-04-06 10:45:00
3:53 AM,50.0,46.9,89,29.80,10.0,SSE,9.2,-,0.00,,Mostly Cloudy,150,2013-04-06 10:53:00
4:19 AM,51.8,46.4,82,29.79,10.0,SSE,8.1,-,N/A,,Overcast,150,2013-04-06 11:19:00
4:43 AM,51.8,46.4,82,29.80,10.0,ESE,8.1,-,N/A,,Overcast,120,2013-04-06 11:43:00
4:53 AM,51.1,46.0,83,29.83,10.0,SE,10.4,17.3,N/A,,Overcast,140,2013-04-06 11:53:00
5:21 AM,48.2,42.8,82,29.83,1.8,SW,9.2,21.9,0.10,Rain,Heavy Rain,220,2013-04-06 12:21:00
5:35 AM,46.4,44.6,93,29.83,3.0,South,8.1,-,0.22,Rain,Light Rain,190,2013-04-06 12:35:00
5:42 AM,46.4,44.6,93,29.83,3.0,South,6.9,-,0.24,Rain,Light Rain,170,2013-04-06 12:42:00
5:53 AM,46.9,44.1,90,29.85,6.0,SSE,6.9,-,0.25,Rain,Light Rain,160,2013-04-06 12:53:00
6:53 AM,46.9,44.1,90,29.85,9.0,SSE,8.1,-,0.06,Rain,Light Rain,150,2013-04-06 13:53:00
7:29 AM,46.4,44.6,93,29.85,10.0,SE,3.5,-,0.00,,Mostly Cloudy,130,2013-04-06 14:29:00
7:53 AM,46.0,44.1,93,29.87,10.0,SE,6.9,-,0.00,,Mostly Cloudy,140,2013-04-06 14:53:00
8:53 AM,48.0,44.1,86,29.88,10.0,SE,6.9,-,0.00,,Mostly Cloudy,130,2013-04-06 15:53:00
9:25 AM,48.2,44.6,87,29.87,10.0,SE,8.1,17.3,N/A,,Mostly Cloudy,140,2013-04-06 16:25:00
9:53 AM,50.0,45.0,83,29.90,10.0,SSE,11.5,17.3,N/A,,Overcast,150,2013-04-06 16:53:00
10:53 AM,51.1,43.0,74,29.92,10.0,SSE,10.4,16.1,N/A,,Mostly Cloudy,160,2013-04-06 17:53:00
11:53 AM,52.0,45.0,77,29.93,10.0,SSE,8.1,-,N/A,,Mostly Cloudy,150,2013-04-06 18:53:00
11:55 AM,51.8,44.6,76,29.91,10.0,South,9.2,-,N/A,,Mostly Cloudy,170,2013-04-06 18:55:00
12:14 PM,53.6,44.6,72,29.91,10.0,SSE,8.1,-,N/A,,Overcast,150,2013-04-06 19:14:00
12:53 PM,52.0,43.0,71,29.94,10.0,SSE,16.1,26.5,0.00,Rain,Light Rain,150,2013-04-06 19:53:00
1:29 PM,46.4,42.8,87,29.94,7.0,Variable,4.6,-,0.02,Rain,Light Rain,0,2013-04-06 20:29:00
1:53 PM,48.0,43.0,83,29.96,8.0,West,9.2,-,0.03,Rain,Light Rain,270,2013-04-06 20:53:00
2:53 PM,48.9,43.0,80,29.96,10.0,SE,6.9,-,0.01,Rain,Light Rain,140,2013-04-06 21:53:00
3:53 PM,50.0,45.0,83,29.95,10.0,SE,6.9,-,0.01,,Scattered Clouds,140,2013-04-06 22:53:00
4:53 PM,52.0,45.0,77,29.94,10.0,SSE,5.8,-,0.01,,Mostly Cloudy,160,2013-04-06 23:53:00
5:53 PM,46.9,42.1,83,29.95,1.2,South,9.2,24.2,0.08,Rain,Heavy Rain,180,2013-04-07 00:53:00
6:01 PM,46.4,42.8,87,29.93,2.0,SW,5.8,-,0.02,Rain,Light Rain,230,2013-04-07 01:01:00
6:09 PM,46.4,42.8,87,29.93,5.0,Variable,5.8,-,0.02,Rain,Light Rain,0,2013-04-07 01:09:00
6:53 PM,48.0,43.0,83,29.93,10.0,South,3.5,-,0.02,,Mostly Cloudy,170,2013-04-07 01:53:00
7:53 PM,48.0,44.1,86,29.91,10.0,Calm,Calm,-,N/A,,Overcast,0,2013-04-07 02:53:00
8:53 PM,46.9,45.0,93,29.89,10.0,ESE,3.5,-,N/A,,Overcast,110,2013-04-07 03:53:00
9:53 PM,46.0,44.1,93,29.88,10.0,East,5.8,-,0.04,,Overcast,90,2013-04-07 04:53:00
10:53 PM,46.0,44.1,93,29.86,8.0,East,3.5,-,0.02,Rain,Light Rain,100,2013-04-07 05:53:00
11:53 PM,45.0,43.0,93,29.81,10.0,SE,3.5,-,0.00,Rain,Light Rain,140,2013-04-07 06:53:00